When you browse on this site, cookies collect data to enhance your experience and personalize the content and advertising you see.
Visit our Privacy Policy to learn more. By continuing to use the site, you agree to this use of cookies and data.
  • en France
  • Liste des pays
  • À 7 jours
  • Température de l'eau
  • Carte satellitaire
  • Carte météo
  • Widgets météo
  • user-avatar
    Se connecter

    Météo par heure à Nashavar

    Ce jour, 17 Février, Dimanche

    Heure Température Précipitation Vent Pression Humidité
    00:00 +14°C° 0 mm 1 m/s 733 mmHg 26%
    01:00 +14°C° 0 mm 1 m/s 732 mmHg 26%
    02:00 +14°C° 0 mm 1 m/s 732 mmHg 26%
    03:00 +14°C° 0 mm 1 m/s 732 mmHg 26%
    04:00 +14°C° 0 mm 1 m/s 732 mmHg 26%
    05:00 +13°C° 0 mm 1 m/s 731 mmHg 27%
    06:00 +13°C° 0 mm 1 m/s 731 mmHg 28%
    07:00 +14°C° 0 mm 1 m/s 731 mmHg 29%
    08:00 +14°C° 0 mm 1 m/s 731 mmHg 30%
    09:00 +15°C° 0 mm 1 m/s 731 mmHg 27%
    10:00 +16°C° 0 mm 1 m/s 731 mmHg 24%
    11:00 +17°C° 0 mm 0 m/s 731 mmHg 21%
    12:00 +19°C° 0 mm 1 m/s 731 mmHg 22%
    13:00 +20°C° 0 mm 1 m/s 730 mmHg 23%
    14:00 +20°C° 0 mm 1 m/s 729 mmHg 24%
    15:00 +19°C° 0 mm 2 m/s 729 mmHg 26%
    16:00 +19°C° 0 mm 2 m/s 729 mmHg 27%
    17:00 +18°C° 0 mm 2 m/s 729 mmHg 29%
    18:00 +18°C° 0 mm 2 m/s 729 mmHg 31%
    19:00 +17°C° 0 mm 2 m/s 730 mmHg 32%
    20:00 +16°C° 0 mm 2 m/s 730 mmHg 34%
    21:00 +15°C° 0 mm 2 m/s 730 mmHg 36%
    22:00 +15°C° 0 mm 1 m/s 730 mmHg 38%
    23:00 +14°C° 0 mm 1 m/s 730 mmHg 40%

    Demain, 18 Février, Lundi

    Heure Température Précipitation Vent Pression Humidité
    00:00 +14°C° 0.1 mm 1 m/s 730 mmHg 44%
    01:00 +13°C° 0.1 mm 1 m/s 729 mmHg 48%
    02:00 +13°C° 0.1 mm 1 m/s 729 mmHg 52%
    03:00 +12°C° 0 mm 0 m/s 729 mmHg 54%
    04:00 +11°C° 0 mm 0 m/s 729 mmHg 57%
    05:00 +11°C° 0 mm 0 m/s 728 mmHg 60%
    06:00 +11°C° 0 mm 0 m/s 729 mmHg 60%
    07:00 +12°C° 0 mm 1 m/s 729 mmHg 61%
    08:00 +12°C° 0 mm 1 m/s 729 mmHg 62%
    09:00 +13°C° 0 mm 1 m/s 729 mmHg 60%
    10:00 +14°C° 0 mm 1 m/s 730 mmHg 59%
    11:00 +14°C° 0 mm 2 m/s 730 mmHg 58%
    12:00 +15°C° 0 mm 2 m/s 729 mmHg 57%
    13:00 +15°C° 0 mm 2 m/s 729 mmHg 56%
    14:00 +16°C° 0 mm 2 m/s 728 mmHg 56%
    15:00 +15°C° 0 mm 2 m/s 728 mmHg 57%
    16:00 +15°C° 0 mm 2 m/s 727 mmHg 59%
    17:00 +15°C° 0 mm 1 m/s 727 mmHg 60%
    18:00 +14°C° 0.1 mm 1 m/s 727 mmHg 63%
    19:00 +14°C° 0.1 mm 1 m/s 727 mmHg 66%
    20:00 +13°C° 0.1 mm 1 m/s 728 mmHg 68%
    21:00 +13°C° 0.2 mm 1 m/s 728 mmHg 71%
    22:00 +12°C° 0.2 mm 1 m/s 728 mmHg 73%
    23:00 +12°C° 0.2 mm 1 m/s 728 mmHg 75%

    Après-demain, 19 Février, Mardi

    Heure Température Précipitation Vent Pression Humidité
    00:00 +12°C° 0.1 mm 1 m/s 728 mmHg 75%
    01:00 +11°C° 0.1 mm 1 m/s 728 mmHg 74%
    02:00 +11°C° 0.1 mm 1 m/s 728 mmHg 74%
    03:00 +11°C° 0 mm 1 m/s 728 mmHg 72%
    04:00 +9°C° 0 mm 2 m/s 728 mmHg 70%
    05:00 +9°C° 0 mm 2 m/s 728 mmHg 67%
    06:00 +9°C° 0 mm 2 m/s 728 mmHg 63%
    07:00 +9°C° 0 mm 2 m/s 728 mmHg 58%
    08:00 +10°C° 0 mm 2 m/s 729 mmHg 54%
    09:00 +12°C° 0 mm 2 m/s 729 mmHg 46%
    10:00 +14°C° 0 mm 1 m/s 730 mmHg 39%
    11:00 +15°C° 0 mm 1 m/s 730 mmHg 31%
    12:00 +16°C° 0 mm 1 m/s 730 mmHg 31%
    13:00 +17°C° 0 mm 2 m/s 730 mmHg 30%
    14:00 +18°C° 0 mm 2 m/s 730 mmHg 30%
    15:00 +17°C° 0 mm 2 m/s 731 mmHg 32%
    16:00 +17°C° 0 mm 2 m/s 731 mmHg 34%
    17:00 +17°C° 0 mm 2 m/s 731 mmHg 35%
    18:00 +16°C° 0 mm 2 m/s 732 mmHg 40%
    19:00 +16°C° 0 mm 1 m/s 733 mmHg 44%
    20:00 +15°C° 0 mm 1 m/s 734 mmHg 48%
    21:00 +14°C° 0.1 mm 1 m/s 734 mmHg 49%
    22:00 +14°C° 0.1 mm 1 m/s 735 mmHg 51%
    23:00 +14°C° 0.1 mm 2 m/s 735 mmHg 52%

    20 Février, Mercredi

    Heure Température Précipitation Vent Pression Humidité
    00:00 +13°C° 0.8 mm 2 m/s 735 mmHg 55%
    01:00 +12°C° 0.8 mm 3 m/s 734 mmHg 58%
    02:00 +11°C° 0.8 mm 3 m/s 734 mmHg 62%
    03:00 +11°C° 0.7 mm 3 m/s 734 mmHg 63%
    04:00 +10°C° 0.7 mm 3 m/s 734 mmHg 64%
    05:00 +10°C° 0.7 mm 3 m/s 734 mmHg 65%
    06:00 +10°C° 0.1 mm 3 m/s 734 mmHg 63%
    07:00 +10°C° 0.1 mm 3 m/s 735 mmHg 62%
    08:00 +10°C° 0.1 mm 2 m/s 735 mmHg 60%
    09:00 +11°C° 0.1 mm 3 m/s 735 mmHg 57%
    10:00 +11°C° 0.1 mm 3 m/s 735 mmHg 54%
    11:00 +12°C° 0.1 mm 3 m/s 736 mmHg 51%
    12:00 +12°C° 0.1 mm 3 m/s 735 mmHg 51%
    13:00 +13°C° 0.1 mm 3 m/s 735 mmHg 51%
    14:00 +13°C° 0.1 mm 3 m/s 734 mmHg 50%
    15:00 +13°C° 0 mm 3 m/s 734 mmHg 51%
    16:00 +13°C° 0 mm 3 m/s 734 mmHg 52%
    17:00 +13°C° 0 mm 3 m/s 734 mmHg 52%
    18:00 +13°C° 0 mm 2 m/s 734 mmHg 55%
    19:00 +13°C° 0 mm 2 m/s 734 mmHg 58%
    20:00 +12°C° 0 mm 2 m/s 734 mmHg 61%
    21:00 +12°C° 0.4 mm 2 m/s 734 mmHg 63%
    22:00 +11°C° 0.4 mm 3 m/s 734 mmHg 66%
    23:00 +11°C° 0.4 mm 3 m/s 733 mmHg 68%

    21 Février, Jeudi

    Heure Température Précipitation Vent Pression Humidité
    00:00 +10°C° 0.9 mm 2 m/s 733 mmHg 70%
    01:00 +10°C° 0.9 mm 2 m/s 732 mmHg 72%
    02:00 +10°C° 0.9 mm 2 m/s 731 mmHg 74%
    03:00 +11°C° 0.3 mm 1 m/s 731 mmHg 75%
    04:00 +10°C° 0.3 mm 1 m/s 730 mmHg 76%
    05:00 +10°C° 0.3 mm 1 m/s 730 mmHg 78%
    06:00 +10°C° 0 mm 1 m/s 730 mmHg 74%
    07:00 +10°C° 0 mm 1 m/s 730 mmHg 70%
    08:00 +10°C° 0 mm 0 m/s 731 mmHg 67%
    09:00 +12°C° 0 mm 1 m/s 731 mmHg 63%
    10:00 +13°C° 0 mm 1 m/s 732 mmHg 58%
    11:00 +14°C° 0 mm 2 m/s 733 mmHg 54%
    12:00 +15°C° 0 mm 2 m/s 732 mmHg 54%
    13:00 +16°C° 0 mm 2 m/s 732 mmHg 54%
    14:00 +16°C° 0 mm 2 m/s 732 mmHg 54%
    15:00 +16°C° 0.1 mm 2 m/s 732 mmHg 55%
    16:00 +16°C° 0.1 mm 1 m/s 732 mmHg 55%
    17:00 +16°C° 0.1 mm 1 m/s 732 mmHg 56%
    18:00 +15°C° 0 mm 1 m/s 732 mmHg 61%
    19:00 +14°C° 0 mm 1 m/s 733 mmHg 66%
    20:00 +13°C° 0 mm 1 m/s 734 mmHg 70%
    21:00 +13°C° 0 mm 1 m/s 734 mmHg 70%
    22:00 +13°C° 0 mm 1 m/s 734 mmHg 71%
    23:00 +12°C° 0 mm 2 m/s 735 mmHg 71%

    22 Février, Vendredi

    Heure Température Précipitation Vent Pression Humidité
    00:00 +12°C° 0 mm 2 m/s 735 mmHg 70%
    01:00 +12°C° 0 mm 2 m/s 735 mmHg 68%
    02:00 +10°C° 0 mm 2 m/s 735 mmHg 67%
    03:00 +10°C° 0 mm 2 m/s 735 mmHg 65%
    04:00 +10°C° 0 mm 2 m/s 735 mmHg 63%
    05:00 +9°C° 0 mm 2 m/s 735 mmHg 60%
    06:00 +10°C° 0 mm 2 m/s 735 mmHg 58%
    07:00 +10°C° 0 mm 2 m/s 736 mmHg 55%
    08:00 +10°C° 0 mm 2 m/s 736 mmHg 52%
    09:00 +12°C° 0 mm 3 m/s 736 mmHg 46%
    10:00 +14°C° 0 mm 3 m/s 736 mmHg 39%
    11:00 +16°C° 0 mm 3 m/s 736 mmHg 32%
    12:00 +17°C° 0 mm 3 m/s 736 mmHg 31%
    13:00 +18°C° 0 mm 3 m/s 735 mmHg 30%
    14:00 +19°C° 0 mm 3 m/s 735 mmHg 29%
    15:00 +19°C° 0 mm 2 m/s 734 mmHg 29%
    16:00 +18°C° 0 mm 2 m/s 734 mmHg 30%
    17:00 +18°C° 0 mm 2 m/s 734 mmHg 30%
    18:00 +17°C° 0 mm 3 m/s 734 mmHg 33%
    19:00 +16°C° 0 mm 3 m/s 735 mmHg 35%
    20:00 +14°C° 0 mm 3 m/s 735 mmHg 38%
    21:00 +13°C° 0 mm 4 m/s 735 mmHg 37%
    22:00 +13°C° 0 mm 4 m/s 735 mmHg 37%
    23:00 +12°C° 0 mm 4 m/s 735 mmHg 36%
    Voir plus